TimeMDT,TemperatureF,Dew PointF,Humidity,Sea Level PressureIn,VisibilityMPH,Wind Direction,Wind SpeedMPH,Gust SpeedMPH,PrecipitationIn,Events,Conditions,WindDirDegrees,DateUTC
12:53 AM,63.0,59.0,87,29.99,10.0,East,5.8,-,N/A,,Clear,90,2013-09-06 06:53:00
1:53 AM,61.0,59.0,93,30.03,10.0,East,8.1,-,N/A,,Scattered Clouds,80,2013-09-06 07:53:00
2:53 AM,59.0,57.9,96,30.01,10.0,West,3.5,-,N/A,,Clear,280,2013-09-06 08:53:00
3:53 AM,59.0,57.0,93,30.01,10.0,North,3.5,-,N/A,,Clear,350,2013-09-06 09:53:00
4:53 AM,59.0,57.9,96,30.02,10.0,SSW,5.8,-,N/A,,Partly Cloudy,200,2013-09-06 10:53:00
5:53 AM,57.9,57.0,97,30.00,10.0,SE,3.5,-,N/A,,Clear,130,2013-09-06 11:53:00
6:53 AM,55.9,55.0,97,30.02,10.0,Calm,Calm,-,N/A,,Clear,0,2013-09-06 12:53:00
7:06 AM,55.4,55.4,100,30.07,1.8,Calm,Calm,-,N/A,,Clear,0,2013-09-06 13:06:00
7:10 AM,55.4,55.4,100,30.08,2.0,Calm,Calm,-,N/A,,Partly Cloudy,0,2013-09-06 13:10:00
7:18 AM,57.2,57.2,100,30.08,10.0,Calm,Calm,-,N/A,,Scattered Clouds,0,2013-09-06 13:18:00
7:53 AM,57.9,57.0,97,30.03,10.0,SSE,5.8,-,N/A,,Partly Cloudy,150,2013-09-06 13:53:00
8:18 AM,57.2,57.2,100,30.08,8.0,Calm,Calm,-,N/A,,Scattered Clouds,0,2013-09-06 14:18:00
8:27 AM,57.2,55.4,94,30.08,10.0,Calm,Calm,-,N/A,,Mostly Cloudy,0,2013-09-06 14:27:00
8:53 AM,57.9,57.0,97,30.04,10.0,Calm,Calm,-,N/A,,Mostly Cloudy,0,2013-09-06 14:53:00
9:02 AM,59.0,57.2,94,30.08,10.0,Calm,Calm,-,N/A,,Scattered Clouds,0,2013-09-06 15:02:00
9:53 AM,60.1,57.9,93,30.04,10.0,Calm,Calm,-,N/A,,Clear,0,2013-09-06 15:53:00
10:53 AM,63.0,57.9,84,30.04,10.0,Calm,Calm,-,N/A,,Clear,0,2013-09-06 16:53:00
11:53 AM,66.9,59.0,76,30.03,10.0,Calm,Calm,-,N/A,,Partly Cloudy,0,2013-09-06 17:53:00
12:53 PM,73.0,57.9,59,30.01,10.0,NNE,4.6,-,N/A,,Clear,30,2013-09-06 18:53:00
1:53 PM,75.9,57.0,52,30.01,10.0,NNW,17.3,23.0,N/A,,Clear,330,2013-09-06 19:53:00
2:53 PM,78.1,55.9,46,29.99,10.0,NW,15.0,-,N/A,,Clear,320,2013-09-06 20:53:00
3:53 PM,80.1,53.1,39,29.96,10.0,NNW,9.2,20.7,N/A,,Clear,330,2013-09-06 21:53:00
4:53 PM,81.0,52.0,36,29.93,10.0,NW,13.8,23.0,N/A,,Clear,320,2013-09-06 22:53:00
5:53 PM,81.0,50.0,34,29.93,10.0,NW,13.8,25.3,N/A,,Partly Cloudy,310,2013-09-06 23:53:00
6:53 PM,79.0,48.9,35,29.95,10.0,NW,16.1,21.9,N/A,,Partly Cloudy,320,2013-09-07 00:53:00
7:53 PM,73.9,48.9,41,29.97,10.0,NW,12.7,17.3,N/A,,Mostly Cloudy,320,2013-09-07 01:53:00
8:53 PM,73.0,48.9,42,29.99,10.0,NW,13.8,23.0,N/A,,Scattered Clouds,310,2013-09-07 02:53:00
9:53 PM,70.0,48.0,46,30.02,10.0,NW,13.8,-,N/A,,Clear,320,2013-09-07 03:53:00
10:53 PM,70.0,46.9,44,30.03,10.0,NW,10.4,20.7,N/A,,Overcast,320,2013-09-07 04:53:00
11:53 PM,66.9,46.9,49,30.03,10.0,NW,8.1,-,N/A,,Clear,320,2013-09-07 05:53:00